Regional Weather Roundup
Issued by NWS

Home | Current Version | Previous Version | Text Only | Print | Product List | Glossary On
Versions: 1 2 3 4 5 6 7 8 9 10 11 12 13 14 15 16 17 18 19 20 21 22 23 24 25 26 27 28
000
ASCA42 TJSJ 310810
RWRPR
PUERTO RICO/U.S. VIRGIN ISLANDS HOURLY WEATHER ROUNDUP
NATIONAL WEATHER SERVICE SAN JUAN PR
400 AM AST WED AUG 31 2016

PRZ001>002-007>008-010-310900-
PUERTO RICO

CITY           SKY/WX    TMP DP  RH WIND       PRES   REMARKS
SAN JUAN LMM   PTCLDY    81  77  89 E6        30.00S
PONCE          CLEAR     79  73  83 NE6       29.97F
CEIBA          PTCLDY    81  75  83 E7        30.02S
$$

VIZ001>002-310900-
U.S. VIRGIN ISLANDS

CITY           SKY/WX    TMP DP  RH WIND       PRES   REMARKS
CHARLOTTE AMA  PTCLDY    82  79  89 NE3       29.99  HX  93
CHRISTIANSTED  CLEAR     82  75  78 NE5       30.00R
$$

HOURLY WEATHER ROUNDUP FOR THE NEWS MEDIA

CITY           SKY/WX    TMP DP  RH WIND       PRES   REMARKS
ORLANDO        CLOUDY    77  74  90 S14       29.90F
NEW YORK       PTCLDY    73  71  93 CALM      30.03F
NEWARK         PTCLDY    74  71  91 SW6       30.02F
CHICAGO        MOCLDY    72  67  84 NW7       30.04S
HARTFORD       CLEAR     64  62  93 CALM      30.02F
BOSTON         CLOUDY    69  63  81 SW13      30.00F
DALLAS         PTCLDY    80  73  79 NE5       30.00S
PHILADELPHIA   PTCLDY    74  71  91 S5        30.04S FOG
LOS ANGELES    PTCLDY    71  66  84 VRB7      29.84S
WASHINGTON DC  PTCLDY    68  62  81 CALM      30.04F



USA.gov is the U.S. government's official web portal to all federal, state and local government web resources and services.